^^
Station Historical Data
Daily Summary for March 2, 2021 Units:  English    Metric   Both
Daily Weekly Monthly Yearly
  High: Low: Average:
Temperature: 33.5 °F 14.3 °F 24.3 °F
Dew Point: 25.4 °F 7.6 °F 16.7 °F
Humidity: 82% 63% 73%
Wind Speed: 20mph 1mph 8.6mph
Wind Gust: 24mph - -
Wind- - SW
Pressure: 30.39 in 29.85 in -
Precipitation: 0.00 in    
 
 
Tabular Data for March 2, 2021
Time Temperature Dew Point Pressure Wind Wind Speed Wind Gust Humidity Rainfall Rate (Hourly) solar
00:00 16.7 °F 7.6 °F 30.37 in NNW 5 mph 5 mph 67% 0.00 in 0 W/m2
00:05 16.7 °F 8 °F 30.37 in NW 5 mph 5 mph 68% 0.00 in 0 W/m2
00:10 16.6 °F 7.9 °F 30.37 in WNW 4 mph 5 mph 68% 0.00 in 0 W/m2
00:15 16.6 °F 7.9 °F 30.37 in WNW 4 mph 5 mph 68% 0.00 in 0 W/m2
00:20 16.5 °F 8.1 °F 30.37 in WNW 4 mph 4 mph 69% 0.00 in 0 W/m2
00:25 16.4 °F 7.7 °F 30.37 in WNW 3 mph 4 mph 68% 0.00 in 0 W/m2
00:35 16.1 °F 7.7 °F 30.37 in WNW 3 mph 3 mph 69% 0.00 in 0 W/m2
00:40 16 °F 7.9 °F 30.37 in WNW 2 mph 2 mph 70% 0.00 in 0 W/m2
00:45 15.9 °F 7.8 °F 30.37 in West 3 mph 3 mph 70% 0.00 in 0 W/m2
00:50 15.9 °F 8.2 °F 30.38 in WNW 3 mph 3 mph 71% 0.00 in 0 W/m2
00:55 15.8 °F 8.1 °F 30.38 in West 4 mph 4 mph 71% 0.00 in 0 W/m2
01:00 15.8 °F 8.1 °F 30.38 in WNW 4 mph 4 mph 71% 0.00 in 0 W/m2
01:05 15.8 °F 8.1 °F 30.38 in NW 3 mph 4 mph 71% 0.00 in 0 W/m2
01:10 15.7 °F 8.3 °F 30.38 in WNW 3 mph 3 mph 72% 0.00 in 0 W/m2
01:15 15.7 °F 8.3 °F 30.39 in WSW 3 mph 4 mph 72% 0.00 in 0 W/m2
01:20 15.7 °F 8.6 °F 30.39 in WNW 3 mph 3 mph 73% 0.00 in 0 W/m2
01:25 15.7 °F 8.6 °F 30.39 in West 3 mph 4 mph 73% 0.00 in 0 W/m2
01:30 15.6 °F 8.5 °F 30.39 in WNW 3 mph 3 mph 73% 0.00 in 0 W/m2
01:35 15.6 °F 8.5 °F 30.39 in West 3 mph 4 mph 73% 0.00 in 0 W/m2
01:40 15.6 °F 8.5 °F 30.39 in WNW 3 mph 3 mph 73% 0.00 in 0 W/m2
01:45 15.5 °F 8.4 °F 30.39 in West 3 mph 4 mph 73% 0.00 in 0 W/m2
01:50 15.5 °F 8.4 °F 30.39 in WNW 3 mph 4 mph 73% 0.00 in 0 W/m2
01:55 15.5 °F 8.4 °F 30.39 in WNW 3 mph 4 mph 73% 0.00 in 0 W/m2
02:00 15.5 °F 8.4 °F 30.38 in NW 3 mph 3 mph 73% 0.00 in 0 W/m2
02:05 15.5 °F 8.4 °F 30.38 in NW 3 mph 3 mph 73% 0.00 in 0 W/m2
02:10 15.4 °F 8.3 °F 30.38 in WNW 3 mph 3 mph 73% 0.00 in 0 W/m2
02:15 15.4 °F 8.3 °F 30.38 in NW 3 mph 6 mph 73% 0.00 in 0 W/m2
02:20 15.4 °F 8.3 °F 30.38 in NW 2 mph 3 mph 73% 0.00 in 0 W/m2
02:25 15.3 °F 8.2 °F 30.38 in NW 2 mph 3 mph 73% 0.00 in 0 W/m2
02:30 15.3 °F 8.2 °F 30.38 in WNW 2 mph 2 mph 73% 0.00 in 0 W/m2
02:35 15.3 °F 8.2 °F 30.37 in NW 1 mph 2 mph 73% 0.00 in 0 W/m2
02:40 15.2 °F 8.1 °F 30.37 in NW 1 mph 1 mph 73% 0.00 in 0 W/m2
02:45 15.1 °F 8 °F 30.37 in WNW 1 mph 1 mph 73% 0.00 in 0 W/m2
02:50 15 °F 8.2 °F 30.37 in WNW 2 mph 2 mph 74% 0.00 in 0 W/m2
02:55 14.9 °F 8.1 °F 30.37 in WNW 2 mph 2 mph 74% 0.00 in 0 W/m2
03:00 14.9 °F 8.1 °F 30.37 in West 1 mph 2 mph 74% 0.00 in 0 W/m2
03:05 14.8 °F 8 °F 30.37 in West 2 mph 2 mph 74% 0.00 in 0 W/m2
03:10 14.7 °F 7.9 °F 30.37 in West 2 mph 2 mph 74% 0.00 in 0 W/m2
03:15 14.6 °F 7.8 °F 30.37 in West 2 mph 2 mph 74% 0.00 in 0 W/m2
03:20 14.6 °F 7.8 °F 30.37 in West 2 mph 2 mph 74% 0.00 in 0 W/m2
03:25 14.5 °F 7.7 °F 30.37 in WSW 2 mph 2 mph 74% 0.00 in 0 W/m2
03:30 14.4 °F 7.6 °F 30.37 in West 2 mph 2 mph 74% 0.00 in 0 W/m2
03:35 14.4 °F 7.9 °F 30.37 in West 2 mph 2 mph 75% 0.00 in 0 W/m2
03:40 14.4 °F 7.9 °F 30.36 in West 2 mph 2 mph 75% 0.00 in 0 W/m2
03:45 14.4 °F 8.2 °F 30.36 in West 2 mph 2 mph 76% 0.00 in 0 W/m2
03:50 14.4 °F 8.5 °F 30.36 in West 2 mph 2 mph 77% 0.00 in 0 W/m2
03:55 14.4 °F 8.5 °F 30.36 in West 2 mph 2 mph 77% 0.00 in 0 W/m2
04:00 14.3 °F 8.4 °F 30.36 in WSW 1 mph 1 mph 77% 0.00 in 0 W/m2
04:05 14.4 °F 8.5 °F 30.36 in West 2 mph 2 mph 77% 0.00 in 0 W/m2
04:10 14.4 °F 8.5 °F 30.35 in West 2 mph 2 mph 77% 0.00 in 0 W/m2
04:15 14.4 °F 8.5 °F 30.36 in West 2 mph 2 mph 77% 0.00 in 0 W/m2
04:20 14.3 °F 8.7 °F 30.36 in West 2 mph 2 mph 78% 0.00 in 0 W/m2
04:25 14.4 °F 8.8 °F 30.35 in WSW 2 mph 2 mph 78% 0.00 in 0 W/m2
04:30 14.4 °F 8.8 °F 30.35 in WSW 1 mph 2 mph 78% 0.00 in 0 W/m2
04:35 14.4 °F 8.8 °F 30.35 in SW 1 mph 2 mph 78% 0.00 in 0 W/m2
04:40 14.4 °F 8.8 °F 30.35 in SW 1 mph 1 mph 78% 0.00 in 0 W/m2
04:45 14.4 °F 9.1 °F 30.35 in WSW 1 mph 3 mph 79% 0.00 in 0 W/m2
04:50 14.4 °F 9.1 °F 30.35 in WSW 2 mph 3 mph 79% 0.00 in 0 W/m2
04:55 14.5 °F 9.5 °F 30.35 in West 2 mph 3 mph 80% 0.00 in 0 W/m2
05:00 14.5 °F 9.5 °F 30.35 in WSW 2 mph 2 mph 80% 0.00 in 0 W/m2
05:05 14.6 °F 9.6 °F 30.35 in SW 2 mph 2 mph 80% 0.00 in 0 W/m2
05:15 14.8 °F 10 °F 30.35 in SW 2 mph 3 mph 81% 0.00 in 0 W/m2
05:20 14.9 °F 10.1 °F 30.35 in SW 2 mph 2 mph 81% 0.00 in 0 W/m2
05:25 15 °F 10.2 °F 30.35 in SW 2 mph 3 mph 81% 0.00 in 0 W/m2
05:30 15 °F 10.2 °F 30.35 in SW 2 mph 2 mph 81% 0.00 in 0 W/m2
05:35 15 °F 10.2 °F 30.36 in SW 2 mph 2 mph 81% 0.00 in 0 W/m2
05:40 15 °F 10.2 °F 30.36 in SW 2 mph 2 mph 81% 0.00 in 0 W/m2
05:45 15 °F 10.2 °F 30.36 in WSW 2 mph 2 mph 81% 0.00 in 0 W/m2
05:50 15 °F 10.2 °F 30.36 in SW 2 mph 3 mph 81% 0.00 in 0 W/m2
05:55 15.1 °F 10.3 °F 30.35 in WSW 2 mph 3 mph 81% 0.00 in 0 W/m2
06:00 15 °F 10.2 °F 30.35 in WSW 2 mph 2 mph 81% 0.00 in 0 W/m2
06:05 15 °F 10.2 °F 30.35 in SW 2 mph 2 mph 81% 0.00 in 0 W/m2
06:10 15 °F 10.2 °F 30.35 in SW 2 mph 2 mph 81% 0.00 in 0 W/m2
06:15 15 °F 10.2 °F 30.35 in SW 2 mph 2 mph 81% 0.00 in 0 W/m2
06:20 14.9 °F 9.8 °F 30.35 in WSW 1 mph 1 mph 80% 0.00 in 0 W/m2
06:25 14.9 °F 9.8 °F 30.35 in WSW 1 mph 2 mph 80% 0.00 in 0 W/m2
06:30 14.8 °F 9.7 °F 30.35 in WSW 1 mph 2 mph 80% 0.00 in 0 W/m2
06:35 14.9 °F 10.1 °F 30.35 in SW 2 mph 2 mph 81% 0.00 in 0 W/m2
06:40 14.8 °F 10 °F 30.35 in SSW 3 mph 3 mph 81% 0.00 in 0 W/m2
06:45 14.8 °F 10 °F 30.34 in SW 3 mph 3 mph 81% 0.00 in 0 W/m2
06:50 14.8 °F 10 °F 30.35 in South 4 mph 4 mph 81% 0.00 in 0 W/m2
06:55 14.9 °F 9.8 °F 30.34 in SSW 4 mph 4 mph 80% 0.00 in 0 W/m2
07:00 14.8 °F 9.7 °F 30.34 in SSW 4 mph 4 mph 80% 0.00 in 0 W/m2
07:05 14.8 °F 9.7 °F 30.34 in SSW 3 mph 4 mph 80% 0.00 in 0 W/m2
07:10 14.9 °F 9.8 °F 30.33 in SSW 2 mph 2 mph 80% 0.00 in 5 W/m2
07:15 14.8 °F 9.7 °F 30.34 in SSE 1 mph 2 mph 80% 0.00 in 9 W/m2
07:20 14.9 °F 10.1 °F 30.33 in South 1 mph 1 mph 81% 0.00 in 11 W/m2
07:25 14.8 °F 10 °F 30.33 in South 1 mph 1 mph 81% 0.00 in 14 W/m2
07:30 14.8 °F 10 °F 30.33 in SW 1 mph 1 mph 81% 0.00 in 28 W/m2
07:35 14.8 °F 10 °F 30.33 in SW 1 mph 1 mph 81% 0.00 in 49 W/m2
07:40 14.8 °F 10.3 °F 30.32 in WSW 1 mph 1 mph 82% 0.00 in 60 W/m2
07:45 15 °F 10.5 °F 30.33 in WSW 1 mph 1 mph 82% 0.00 in 72 W/m2
07:50 15 °F 10.5 °F 30.32 in WSW 1 mph 1 mph 82% 0.00 in 86 W/m2
07:55 15.1 °F 10.6 °F 30.32 in WSW 1 mph 1 mph 82% 0.00 in 102 W/m2
08:00 15.2 °F 10.7 °F 30.32 in WSW 1 mph 1 mph 82% 0.00 in 116 W/m2
08:05 15.2 °F 10.4 °F 30.32 in West 1 mph 1 mph 81% 0.00 in 130 W/m2
08:10 15.3 °F 10.5 °F 30.32 in WNW 1 mph 2 mph 81% 0.00 in 142 W/m2
08:15 15.5 °F 10.4 °F 30.32 in WNW 1 mph 2 mph 80% 0.00 in 155 W/m2
08:20 15.7 °F 10.6 °F 30.32 in NW 1 mph 2 mph 80% 0.00 in 169 W/m2
08:25 15.9 °F 10.8 °F 30.32 in NW 1 mph 2 mph 80% 0.00 in 172 W/m2
08:30 16.1 °F 11 °F 30.32 in WSW 1 mph 2 mph 80% 0.00 in 169 W/m2
08:35 16.5 °F 11.4 °F 30.32 in WNW 1 mph 2 mph 80% 0.00 in 127 W/m2
08:40 17 °F 11.6 °F 30.32 in West 2 mph 2 mph 79% 0.00 in 216 W/m2
08:45 17.5 °F 12.1 °F 30.31 in North 1 mph 3 mph 79% 0.00 in 214 W/m2
08:50 17.7 °F 12 °F 30.32 in North 1 mph 2 mph 78% 0.00 in 174 W/m2
08:55 17.9 °F 11.6 °F 30.31 in North 2 mph 2 mph 76% 0.00 in 160 W/m2
09:00 18.1 °F 12.1 °F 30.31 in SE 2 mph 2 mph 77% 0.00 in 77 W/m2
09:05 18.4 °F 12.4 °F 30.30 in North 2 mph 5 mph 77% 0.00 in 204 W/m2
09:10 18.7 °F 12.4 °F 30.30 in North 3 mph 3 mph 76% 0.00 in 113 W/m2
09:15 18.9 °F 12.6 °F 30.30 in NNE 3 mph 3 mph 76% 0.00 in 88 W/m2
09:20 19.2 °F 12.9 °F 30.29 in ENE 3 mph 3 mph 76% 0.00 in 195 W/m2
09:25 19.6 °F 13 °F 30.29 in North 3 mph 5 mph 75% 0.00 in 323 W/m2
09:30 19.9 °F 13.3 °F 30.28 in NE 3 mph 4 mph 75% 0.00 in 278 W/m2
09:35 20.3 °F 13.6 °F 30.28 in North 4 mph 4 mph 75% 0.00 in 346 W/m2
09:40 20.6 °F 13.6 °F 30.28 in NNW 4 mph 4 mph 74% 0.00 in 253 W/m2
09:45 20.3 °F 12.7 °F 30.27 in NNE 4 mph 6 mph 72% 0.00 in 223 W/m2
09:55 21 °F 13.4 °F 30.25 in WSW 4 mph 6 mph 72% 0.00 in 246 W/m2
10:00 21 °F 13.1 °F 30.26 in SW 4 mph 5 mph 71% 0.00 in 336 W/m2
10:05 21.1 °F 13.2 °F 30.26 in South 5 mph 5 mph 71% 0.00 in 229 W/m2
10:10 21.2 °F 13.6 °F 30.25 in South 7 mph 7 mph 72% 0.00 in 445 W/m2
10:15 21 °F 12.7 °F 30.26 in WSW 8 mph 11 mph 70% 0.00 in 290 W/m2
10:20 21.4 °F 13.5 °F 30.26 in South 9 mph 9 mph 71% 0.00 in 489 W/m2
10:25 21.8 °F 14.2 °F 30.26 in SW 8 mph 9 mph 72% 0.00 in 497 W/m2
10:30 22.4 °F 14.7 °F 30.25 in ENE 6 mph 6 mph 72% 0.00 in 373 W/m2
10:35 22.4 °F 14.7 °F 30.25 in NNE 6 mph 6 mph 72% 0.00 in 353 W/m2
10:40 22.7 °F 15 °F 30.24 in SW 6 mph 8 mph 72% 0.00 in 396 W/m2
10:45 22.9 °F 15.5 °F 30.24 in SSE 5 mph 8 mph 73% 0.00 in 570 W/m2
10:50 23.1 °F 15.4 °F 30.24 in SSW 6 mph 9 mph 72% 0.00 in 346 W/m2
10:55 23.2 °F 15.5 °F 30.24 in SSW 9 mph 11 mph 72% 0.00 in 297 W/m2
11:00 23.4 °F 15.4 °F 30.23 in SSW 11 mph 11 mph 71% 0.00 in 425 W/m2
11:05 23.6 °F 15.6 °F 30.23 in South 11 mph 11 mph 71% 0.00 in 381 W/m2
11:10 23.9 °F 16.2 °F 30.23 in SW 11 mph 11 mph 72% 0.00 in 548 W/m2
11:15 24.2 °F 16.5 °F 30.22 in South 10 mph 11 mph 72% 0.00 in 575 W/m2
11:20 24.4 °F 15.7 °F 30.22 in South 9 mph 9 mph 69% 0.00 in 582 W/m2
11:25 25.1 °F 18 °F 30.21 in West 8 mph 9 mph 74% 0.00 in 592 W/m2
11:30 25.2 °F 17.8 °F 30.20 in NNE 6 mph 6 mph 73% 0.00 in 598 W/m2
11:35 25.3 °F 17.9 °F 30.20 in ESE 5 mph 6 mph 73% 0.00 in 605 W/m2
11:40 25.7 °F 18.2 °F 30.19 in SW 5 mph 5 mph 73% 0.00 in 610 W/m2
11:45 25.8 °F 18.7 °F 30.18 in North 5 mph 8 mph 74% 0.00 in 621 W/m2
11:50 26.1 °F 18.9 °F 30.18 in NE 5 mph 7 mph 74% 0.00 in 606 W/m2
11:55 26.5 °F 19.3 °F 30.18 in North 5 mph 7 mph 74% 0.00 in 615 W/m2
12:00 26.7 °F 19.2 °F 30.18 in SE 5 mph 5 mph 73% 0.00 in 629 W/m2
12:05 27 °F 19.8 °F 30.18 in SE 6 mph 6 mph 74% 0.00 in 633 W/m2
12:10 27 °F 18.8 °F 30.18 in SSW 6 mph 9 mph 71% 0.00 in 638 W/m2
12:15 27.2 °F 18.7 °F 30.17 in SW 7 mph 12 mph 70% 0.00 in 640 W/m2
12:20 27.6 °F 19.4 °F 30.17 in NNE 8 mph 8 mph 71% 0.00 in 636 W/m2
12:25 27.7 °F 19.2 °F 30.16 in SSW 9 mph 12 mph 70% 0.00 in 666 W/m2
12:30 27.9 °F 19 °F 30.16 in SW 12 mph 13 mph 69% 0.00 in 687 W/m2
12:35 28.1 °F 18.9 °F 30.16 in SW 13 mph 14 mph 68% 0.00 in 682 W/m2
12:40 28.3 °F 19.4 °F 30.16 in South 13 mph 17 mph 69% 0.00 in 705 W/m2
12:45 28.5 °F 19.6 °F 30.16 in SW 13 mph 17 mph 69% 0.00 in 731 W/m2
12:50 28.7 °F 19.5 °F 30.15 in SW 13 mph 13 mph 68% 0.00 in 710 W/m2
12:55 29.1 °F 20.5 °F 30.15 in SW 13 mph 13 mph 70% 0.00 in 833 W/m2
13:00 28.9 °F 20 °F 30.14 in SSW 13 mph 16 mph 69% 0.00 in 459 W/m2
13:05 28.7 °F 19.8 °F 30.14 in South 13 mph 16 mph 69% 0.00 in 550 W/m2
13:15 29.1 °F 20.5 °F 30.14 in SW 14 mph 16 mph 70% 0.00 in 462 W/m2
13:20 29.2 °F 20.3 °F 30.13 in SSW 13 mph 13 mph 69% 0.00 in 543 W/m2
13:25 29.5 °F 21.3 °F 30.13 in ESE 13 mph 13 mph 71% 0.00 in 524 W/m2
13:30 29.6 °F 20.3 °F 30.13 in SSW 12 mph 13 mph 68% 0.00 in 487 W/m2
13:35 29.7 °F 20.8 °F 30.12 in SSW 13 mph 18 mph 69% 0.00 in 471 W/m2
13:40 29.8 °F 20.5 °F 30.12 in SSW 14 mph 19 mph 68% 0.00 in 454 W/m2
13:45 30.1 °F 21.5 °F 30.11 in SSW 15 mph 19 mph 70% 0.00 in 448 W/m2
13:50 30.1 °F 20.1 °F 30.11 in SSW 15 mph 15 mph 66% 0.00 in 468 W/m2
13:55 30.2 °F 20.9 °F 30.11 in South 16 mph 19 mph 68% 0.00 in 448 W/m2
14:00 30.2 °F 20.9 °F 30.10 in SW 17 mph 18 mph 68% 0.00 in 482 W/m2
14:05 30.6 °F 21.6 °F 30.10 in SSW 17 mph 18 mph 69% 0.00 in 510 W/m2
14:10 30.7 °F 21.7 °F 30.10 in WSW 17 mph 18 mph 69% 0.00 in 480 W/m2
14:15 31 °F 22.4 °F 30.10 in SW 15 mph 18 mph 70% 0.00 in 642 W/m2
14:20 31.2 °F 21.5 °F 30.09 in South 15 mph 15 mph 67% 0.00 in 599 W/m2
14:25 31.2 °F 21.2 °F 30.09 in SSW 16 mph 17 mph 66% 0.00 in 591 W/m2
14:30 31.3 °F 21.6 °F 30.09 in South 16 mph 16 mph 67% 0.00 in 577 W/m2
14:35 31.4 °F 21.7 °F 30.08 in SW 16 mph 16 mph 67% 0.00 in 571 W/m2
14:40 31.6 °F 21.5 °F 30.08 in South 16 mph 16 mph 66% 0.00 in 563 W/m2
14:45 31.8 °F 22.1 °F 30.08 in SSW 16 mph 16 mph 67% 0.00 in 554 W/m2
14:50 31.9 °F 22.2 °F 30.08 in SW 16 mph 16 mph 67% 0.00 in 545 W/m2
14:55 32.1 °F 22.7 °F 30.07 in SSW 16 mph 17 mph 68% 0.00 in 536 W/m2
15:00 32.2 °F 21.7 °F 30.07 in South 16 mph 16 mph 65% 0.00 in 529 W/m2
15:05 32.4 °F 23 °F 30.06 in SSW 16 mph 17 mph 68% 0.00 in 520 W/m2
15:10 32.6 °F 22.5 °F 30.06 in SW 16 mph 20 mph 66% 0.00 in 512 W/m2
15:20 32.9 °F 22.4 °F 30.06 in WSW 17 mph 17 mph 65% 0.00 in 489 W/m2
15:25 33 °F 21.8 °F 30.06 in SW 15 mph 17 mph 63% 0.00 in 476 W/m2
15:30 33.2 °F 23.8 °F 30.06 in WSW 14 mph 14 mph 68% 0.00 in 466 W/m2
15:35 33.4 °F 24 °F 30.05 in South 11 mph 14 mph 68% 0.00 in 454 W/m2
15:40 33.2 °F 25.1 °F 30.05 in West 8 mph 8 mph 72% 0.00 in 443 W/m2
15:45 33.1 °F 25.1 °F 30.04 in SW 7 mph 8 mph 72% 0.00 in 431 W/m2
15:50 33 °F 25 °F 30.04 in SW 7 mph 14 mph 72% 0.00 in 418 W/m2
15:55 32.9 °F 24.9 °F 30.04 in SW 9 mph 14 mph 72% 0.00 in 406 W/m2
16:00 32.8 °F 24.8 °F 30.03 in SSW 11 mph 11 mph 72% 0.00 in 394 W/m2
16:05 32.9 °F 25.2 °F 30.03 in WSW 11 mph 11 mph 73% 0.00 in 380 W/m2
16:10 32.8 °F 24.8 °F 30.03 in SW 11 mph 11 mph 72% 0.00 in 369 W/m2
16:15 32.8 °F 25.4 °F 30.03 in SW 11 mph 11 mph 74% 0.00 in 355 W/m2
16:20 32.8 °F 25.1 °F 30.02 in SW 11 mph 11 mph 73% 0.00 in 343 W/m2
16:25 33.1 °F 25.1 °F 30.02 in WSW 12 mph 14 mph 72% 0.00 in 329 W/m2
16:30 33.1 °F 24.7 °F 30.01 in SSW 13 mph 13 mph 71% 0.00 in 316 W/m2
16:35 33.1 °F 24.7 °F 30.01 in SW 14 mph 22 mph 71% 0.00 in 301 W/m2
16:40 33.2 °F 24.5 °F 30.00 in SSW 15 mph 15 mph 70% 0.00 in 285 W/m2
16:45 33.2 °F 24.5 °F 30.00 in SW 15 mph 15 mph 70% 0.00 in 271 W/m2
16:50 33.2 °F 24.5 °F 30.00 in SSW 14 mph 14 mph 70% 0.00 in 258 W/m2
16:55 33.1 °F 24.4 °F 30.00 in SW 13 mph 17 mph 70% 0.00 in 243 W/m2
17:00 33.1 °F 24.4 °F 30.00 in SSW 13 mph 13 mph 70% 0.00 in 229 W/m2
17:05 33 °F 24.6 °F 30.00 in SW 12 mph 14 mph 71% 0.00 in 213 W/m2
17:10 32.8 °F 24.4 °F 29.99 in SW 11 mph 12 mph 71% 0.00 in 199 W/m2
17:15 32.9 °F 24.5 °F 29.99 in SSW 12 mph 12 mph 71% 0.00 in 185 W/m2
17:20 32.9 °F 24.2 °F 29.98 in WSW 13 mph 13 mph 70% 0.00 in 176 W/m2
17:30 33.1 °F 24 °F 29.97 in WSW 15 mph 15 mph 69% 0.00 in 149 W/m2
17:35 33.1 °F 23.7 °F 29.97 in West 14 mph 15 mph 68% 0.00 in 139 W/m2
17:40 33.1 °F 24 °F 29.97 in WSW 13 mph 13 mph 69% 0.00 in 130 W/m2
17:45 33.3 °F 23.5 °F 29.97 in SW 14 mph 14 mph 67% 0.00 in 105 W/m2
17:50 33.4 °F 23.3 °F 29.96 in WSW 15 mph 15 mph 66% 0.00 in 79 W/m2
17:55 33.4 °F 24 °F 29.96 in SW 15 mph 17 mph 68% 0.00 in 49 W/m2
18:00 33.4 °F 23.6 °F 29.96 in SW 15 mph 15 mph 67% 0.00 in 35 W/m2
18:05 33.3 °F 23.9 °F 29.96 in WSW 14 mph 15 mph 68% 0.00 in 26 W/m2
18:10 33.2 °F 23.8 °F 29.96 in SSW 14 mph 14 mph 68% 0.00 in 23 W/m2
18:15 33.2 °F 23.4 °F 29.96 in WSW 14 mph 16 mph 67% 0.00 in 16 W/m2
18:20 33.3 °F 23.2 °F 29.95 in SSW 16 mph 16 mph 66% 0.00 in 11 W/m2
18:25 33.3 °F 22.8 °F 29.94 in SW 17 mph 18 mph 65% 0.00 in 7 W/m2
18:30 33.5 °F 23 °F 29.93 in SW 18 mph 21 mph 65% 0.00 in 5 W/m2
18:35 33.4 °F 22.9 °F 29.93 in SSW 17 mph 21 mph 65% 0.00 in 0 W/m2
18:40 33.1 °F 23 °F 29.94 in SW 15 mph 19 mph 66% 0.00 in 0 W/m2
18:45 33.3 °F 22.8 °F 29.93 in SSW 16 mph 20 mph 65% 0.00 in 0 W/m2
18:50 33.5 °F 23 °F 29.92 in SSW 18 mph 18 mph 65% 0.00 in 0 W/m2
18:55 33.5 °F 23 °F 29.93 in SSW 18 mph 18 mph 65% 0.00 in 0 W/m2
19:00 33.4 °F 22.9 °F 29.92 in SSW 18 mph 19 mph 65% 0.00 in 0 W/m2
19:05 33.5 °F 23 °F 29.92 in West 18 mph 19 mph 65% 0.00 in 0 W/m2
19:10 33.4 °F 22.9 °F 29.92 in SSW 18 mph 18 mph 65% 0.00 in 0 W/m2
19:15 33.4 °F 23.3 °F 29.92 in WSW 18 mph 18 mph 66% 0.00 in 0 W/m2
19:20 33.2 °F 23.4 °F 29.93 in SW 17 mph 17 mph 67% 0.00 in 0 W/m2
19:25 33.2 °F 23.4 °F 29.93 in SW 17 mph 17 mph 67% 0.00 in 0 W/m2
19:30 33.1 °F 23.3 °F 29.92 in South 17 mph 17 mph 67% 0.00 in 0 W/m2
19:35 33.3 °F 23.5 °F 29.91 in SW 18 mph 18 mph 67% 0.00 in 0 W/m2
19:40 33.3 °F 23.2 °F 29.91 in SSW 19 mph 19 mph 66% 0.00 in 0 W/m2
19:45 33.3 °F 23.5 °F 29.90 in South 18 mph 19 mph 67% 0.00 in 0 W/m2
19:50 33.5 °F 23.4 °F 29.90 in SW 19 mph 19 mph 66% 0.00 in 0 W/m2
19:55 33.4 °F 23.3 °F 29.90 in SSW 20 mph 20 mph 66% 0.00 in 0 W/m2
20:05 33.3 °F 23.2 °F 29.90 in SSW 18 mph 20 mph 66% 0.00 in 0 W/m2
20:15 33.4 °F 23.3 °F 29.89 in SW 18 mph 19 mph 66% 0.00 in 0 W/m2
20:20 33.3 °F 23.2 °F 29.89 in SSW 18 mph 18 mph 66% 0.00 in 0 W/m2
20:25 33.1 °F 23.3 °F 29.89 in SSW 17 mph 23 mph 67% 0.00 in 0 W/m2
20:30 33.2 °F 23.4 °F 29.89 in SSW 17 mph 17 mph 67% 0.00 in 0 W/m2
20:35 33.2 °F 23.4 °F 29.88 in South 17 mph 17 mph 67% 0.00 in 0 W/m2
20:40 33.2 °F 23.4 °F 29.87 in SSW 17 mph 20 mph 67% 0.00 in 0 W/m2
20:45 33.1 °F 23.3 °F 29.87 in South 17 mph 21 mph 67% 0.00 in 0 W/m2
20:50 33.2 °F 23.1 °F 29.87 in SSW 17 mph 20 mph 66% 0.00 in 0 W/m2
20:55 33.1 °F 23 °F 29.87 in SSE 17 mph 22 mph 66% 0.00 in 0 W/m2
21:00 33.2 °F 23.1 °F 29.87 in SSW 18 mph 18 mph 66% 0.00 in 0 W/m2
21:05 33.2 °F 23.1 °F 29.87 in SSE 18 mph 24 mph 66% 0.00 in 0 W/m2
21:10 33.1 °F 23 °F 29.87 in South 17 mph 20 mph 66% 0.00 in 0 W/m2
21:15 33 °F 23.2 °F 29.87 in WSW 18 mph 22 mph 67% 0.00 in 0 W/m2
21:20 32.8 °F 23 °F 29.88 in SSW 18 mph 18 mph 67% 0.00 in 0 W/m2
21:25 32.8 °F 23.4 °F 29.88 in SSW 17 mph 20 mph 68% 0.00 in 0 W/m2
21:30 32.8 °F 23.4 °F 29.88 in SSW 18 mph 18 mph 68% 0.00 in 0 W/m2
21:35 32.7 °F 23.3 °F 29.88 in SSW 17 mph 18 mph 68% 0.00 in 0 W/m2
21:40 32.6 °F 23.2 °F 29.87 in SSW 17 mph 17 mph 68% 0.00 in 0 W/m2
21:45 32.6 °F 23.2 °F 29.87 in SSW 17 mph 18 mph 68% 0.00 in 0 W/m2
21:50 32.4 °F 23 °F 29.87 in South 17 mph 17 mph 68% 0.00 in 0 W/m2
21:55 32.3 °F 23.3 °F 29.86 in SSW 16 mph 20 mph 69% 0.00 in 0 W/m2
22:00 32.3 °F 23.3 °F 29.86 in SSW 16 mph 19 mph 69% 0.00 in 0 W/m2
22:05 32 °F 23.3 °F 29.86 in SSW 16 mph 19 mph 70% 0.00 in 0 W/m2
22:10 31.9 °F 23.2 °F 29.86 in SSW 16 mph 16 mph 70% 0.00 in 0 W/m2
22:15 32 °F 23.3 °F 29.85 in SSW 15 mph 16 mph 70% 0.00 in 0 W/m2
22:20 32.2 °F 23.2 °F 29.86 in SW 15 mph 18 mph 69% 0.00 in 0 W/m2
22:25 32.1 °F 23.4 °F 29.86 in SW 16 mph 18 mph 70% 0.00 in 0 W/m2
22:30 31.9 °F 23.2 °F 29.85 in SW 16 mph 19 mph 70% 0.00 in 0 W/m2
22:35 31.9 °F 23.2 °F 29.85 in SSW 16 mph 19 mph 70% 0.00 in 0 W/m2
22:40 31.9 °F 23.2 °F 29.85 in SSW 16 mph 19 mph 70% 0.00 in 0 W/m2
22:45 32.1 °F 23.4 °F 29.85 in SW 16 mph 19 mph 70% 0.00 in 0 W/m2
22:50 31.8 °F 23.5 °F 29.85 in SW 16 mph 16 mph 71% 0.00 in 0 W/m2
22:55 31.7 °F 23.4 °F 29.85 in SW 15 mph 16 mph 71% 0.00 in 0 W/m2
23:00 31.4 °F 23.4 °F 29.86 in SW 13 mph 13 mph 72% 0.00 in 0 W/m2
23:05 30.8 °F 23.5 °F 29.86 in WSW 10 mph 13 mph 74% 0.00 in 0 W/m2
23:10 30.3 °F 23.6 °F 29.86 in SSW 7 mph 7 mph 76% 0.00 in 0 W/m2
23:15 29.7 °F 23.4 °F 29.87 in SW 6 mph 7 mph 77% 0.00 in 0 W/m2
23:20 29.5 °F 23.5 °F 29.87 in West 6 mph 8 mph 78% 0.00 in 0 W/m2
23:25 29.2 °F 23.5 °F 29.87 in SW 7 mph 8 mph 79% 0.00 in 0 W/m2
23:30 29 °F 23.3 °F 29.87 in SW 7 mph 9 mph 79% 0.00 in 0 W/m2
23:35 29 °F 23.3 °F 29.87 in WSW 7 mph 9 mph 79% 0.00 in 0 W/m2
23:40 29 °F 23.3 °F 29.87 in WSW 7 mph 8 mph 79% 0.00 in 0 W/m2
23:45 29.1 °F 23.4 °F 29.87 in West 8 mph 8 mph 79% 0.00 in 0 W/m2
23:50 29.3 °F 23.3 °F 29.87 in WSW 9 mph 10 mph 78% 0.00 in 0 W/m2
23:55 29.2 °F 23.5 °F 29.87 in WSW 9 mph 10 mph 79% 0.00 in 0 W/m2
Sand Point, Michigan, USA
Compliments of Weather Underground - 2 mb